Location: Nied?wied?
(53.3665°N, 14.8184°E)
Time: 17:49:09
(UTC+00:00)

ISS - Pass Details

Date: 22 May 2021
Orbit: 417 x 422 km, 51.6° (Epoch: 14 June)

Event Time Altitude Azimuth Distance (km) Brightness Sun altitude
Rises 22:33:50 0° 279° (W) 2,371 0.3 -15.9°
Reaches altitude 10° 22:36:11 10° 265° (W) 1,505 -0.9 -15.9°
Enters shadow 22:38:06 21° 234° (SW) 999 -2.2 -15.9°
